Location: Julian California
(33.0790°N, 116.6010°W)
Time: 09:22:43
(UTC-07:00)

Cosmos 1697 Rocket - Pass Details

Date: 28 March 2019
Orbit: 833 x 842 km, 71.0° (Epoch: 18 April)

Event Time Altitude Azimuth Distance (km) Brightness Sun altitude
Rises 03:39:46 0° 355° (N) 3,386 6.2 -36.4°
Reaches altitude 10° 03:42:52 10° 12° (NNE) 2,447 5.5 -35.8°
Maximum altitude 03:46:59 21° 59° (ENE) 1,811 5.0 -35.1°
Drops below altitude 10° 03:51:04 10° 107° (ESE) 2,435 5.5 -34.4°
Sets 03:54:07 0° 123° (ESE) 3,365 6.1 -33.8°
